Theta_e
343 338 337 336 336 336 333 328 323 319 315 313 311 312 312 312 313 315 316 317 319 319 317 316 316 316 317 318 319 322 325 329 332 334 336 337 336 336 336 336 336 337 337 336 336 336 336 335 335 334 334 334 333 333 333 332 330 331 330 330 331 331 333 333 334 335 335 334 334 333 333 331 325 323 317 315 319 319 322 326 325 324 326 331 332
341 337 337 337 336 336 333 328 323 319 316 314 311 311 311 312 313 315 316 317 320 320 319 318 319 320 320 321 323 326 330 333 335 335 336 336 336 337 336 336 336 337 337 336 335 335 335 335 335 333 332 332 331 332 332 332 332 332 330 329 328 326 327 328 330 331 332 333 332 332 330 324 317 316 314 314 318 317 320 323 321 321 323 329 332
339 338 337 337 336 335 333 329 324 319 317 314 311 311 311 312 313 315 317 318 320 322 322 321 322 324 325 327 329 332 334 335 335 335 336 337 337 337 336 336 337 337 337 335 334 334 334 334 334 330 328 329 329 331 332 332 332 331 330 329 328 324 322 322 322 324 325 326 326 328 324 316 313 313 316 316 315 315 318 319 316 316 319 324 329
338 338 338 337 336 335 333 331 326 321 318 315 312 311 311 312 313 315 317 318 320 323 325 325 327 328 330 331 333 334 334 334 334 335 336 337 336 336 336 336 336 336 335 333 333 334 334 334 333 330 328 329 329 331 331 330 332 332 331 331 328 324 322 319 317 317 317 317 317 318 315 311 310 313 318 317 314 313 314 315 313 314 317 322 325
338 337 338 337 336 335 333 332 329 324 320 317 313 311 311 312 313 315 316 318 321 324 327 328 330 331 333 333 334 334 334 333 334 334 335 336 336 337 336 336 336 335 335 334 334 334 335 335 334 331 329 329 328 328 328 329 332 333 333 332 329 327 324 319 316 314 312 312 312 312 310 309 308 310 314 313 312 312 311 312 312 312 315 318 321
337 336 337 336 336 335 333 333 331 327 323 318 313 311 311 312 312 314 316 318 322 325 328 330 331 332 333 333 333 333 333 332 332 333 333 334 335 336 336 336 336 336 336 336 335 334 335 335 334 333 330 326 324 325 326 329 332 332 333 332 330 328 323 318 317 316 313 311 311 310 309 308 307 309 309 309 310 310 311 311 311 312 312 314 316
335 336 336 334 335 335 334 334 332 330 326 320 315 312 311 312 312 313 316 318 322 325 328 330 331 333 333 333 332 332 332 331 331 331 331 331 332 334 335 334 335 335 335 333 331 330 330 330 329 328 325 323 323 325 326 328 330 330 329 327 326 323 318 318 319 317 314 311 310 309 309 307 307 310 309 307 308 308 309 309 309 310 311 312 312
335 336 335 334 334 335 335 334 333 331 328 323 316 312 311 312 312 313 315 318 322 325 328 330 332 333 333 333 333 333 332 332 331 331 330 329 329 329 330 331 332 332 331 328 325 323 320 318 317 317 318 322 325 325 325 325 326 325 322 321 320 318 317 318 319 318 315 310 309 308 307 307 310 314 311 307 308 308 308 308 309 309 309 309 309
336 336 335 334 334 334 335 334 334 332 329 325 319 314 311 312 312 312 314 317 321 324 327 329 331 332 333 333 334 335 334 333 334 332 329 327 325 323 323 324 326 326 324 321 318 314 311 309 309 309 315 323 326 325 324 322 321 319 318 318 319 318 317 316 316 315 313 309 309 308 308 311 315 318 315 310 308 308 307 307 308 308 308 308 308
336 336 336 334 334 334 334 334 334 333 331 328 322 316 311 311 312 312 313 316 320 323 325 328 331 332 333 334 335 336 335 335 336 333 328 325 321 318 317 317 317 317 315 313 310 308 308 308 308 309 315 324 326 324 320 318 317 318 318 318 318 318 316 314 313 312 310 308 308 308 311 317 323 324 321 315 312 311 310 308 308 308 308 308 308
336 336 336 334 333 334 334 335 334 334 332 329 325 317 312 311 312 312 313 314 317 321 323 326 330 331 333 335 336 336 336 336 335 331 326 321 317 315 313 312 311 310 309 308 308 307 307 307 308 311 318 323 324 321 318 318 319 319 319 319 317 316 314 313 311 310 309 308 308 309 312 322 327 327 326 324 319 316 316 312 309 310 309 310 310
336 336 335 334 334 334 335 335 334 334 333 331 327 319 313 311 312 312 312 313 315 318 321 324 328 330 331 335 336 336 336 334 333 328 324 319 315 313 310 310 309 308 308 308 308 308 308 307 309 316 320 322 321 319 318 320 320 321 320 319 318 315 313 312 310 309 310 310 310 310 312 320 325 327 328 327 325 320 322 320 314 312 310 311 311
336 336 335 335 334 335 335 335 334 334 333 332 328 322 315 311 311 311 312 312 313 316 319 322 324 327 330 334 336 336 335 334 331 326 321 317 312 311 309 309 308 308 308 308 308 308 308 307 312 320 323 322 320 318 319 320 321 321 321 319 318 315 314 312 310 310 311 312 312 313 312 315 319 324 326 327 327 320 320 320 315 312 310 311 311
335 335 335 335 335 335 335 335 335 334 333 332 329 325 318 313 311 311 312 312 313 314 316 320 321 324 330 334 335 335 334 332 327 321 318 314 311 309 308 308 308 309 308 308 309 308 308 310 317 322 325 324 320 319 318 319 320 321 320 319 318 316 315 313 311 311 311 313 314 314 313 314 316 322 325 326 325 316 314 314 311 310 310 310 310
335 334 334 335 335 335 335 335 334 334 333 331 329 326 322 316 312 311 311 312 313 313 314 317 319 322 327 330 332 332 333 329 322 317 315 312 310 309 308 309 309 309 309 309 309 310 311 314 321 323 324 324 322 319 318 319 320 320 320 319 319 317 316 315 312 312 312 312 314 314 313 314 315 321 325 323 318 313 311 311 310 310 310 310 310
334 334 334 335 334 334 334 334 334 334 332 330 328 326 324 319 313 311 311 312 313 313 313 315 317 321 323 323 326 328 329 325 317 314 312 311 309 309 309 309 309 309 309 309 309 310 314 319 323 324 324 324 323 321 319 320 321 320 320 320 320 320 318 316 314 313 313 313 312 312 312 313 313 317 319 316 314 312 311 311 311 310 310 310 310
334 333 333 334 333 333 333 333 333 332 331 329 326 325 325 321 315 311 310 311 313 313 313 314 315 317 318 319 321 323 324 320 316 314 312 310 309 309 309 309 309 309 309 310 309 311 316 321 324 325 325 323 322 322 321 322 322 321 321 321 321 322 320 318 318 317 316 315 313 313 313 313 313 313 314 313 313 313 312 312 311 311 310 310 310
333 333 333 333 332 332 332 332 331 330 329 326 324 323 324 322 317 311 310 310 312 313 313 314 313 314 315 317 320 321 321 319 318 316 313 311 310 309 309 309 309 309 310 310 310 312 317 321 324 326 325 323 321 322 323 323 323 323 323 322 322 324 322 320 321 320 320 318 317 316 315 315 314 313 313 313 312 312 312 312 312 311 310 310 310
333 333 333 332 332 331 331 330 328 327 326 324 323 321 322 322 319 312 309 309 311 313 313 313 314 314 314 316 319 320 320 319 319 317 315 313 310 310 310 310 310 309 309 309 310 313 318 322 324 325 326 323 319 321 323 323 324 324 324 323 324 325 324 323 322 322 322 320 320 319 317 317 316 315 315 315 314 313 311 311 312 311 311 310 310
334 333 333 332 331 330 329 327 326 324 323 322 321 320 321 323 319 312 309 309 310 311 312 313 313 314 314 315 317 318 319 319 319 318 317 315 312 310 310 311 311 310 309 309 310 314 319 322 324 325 326 324 320 320 322 323 324 325 325 324 325 326 326 325 323 323 324 322 321 321 319 319 318 317 317 317 317 316 313 311 311 311 311 311 310
334 334 333 332 330 329 327 325 324 322 321 320 320 319 321 322 318 312 309 309 309 310 311 311 312 313 314 314 314 315 316 318 318 318 318 317 315 312 310 312 312 311 310 309 310 314 319 322 324 326 326 325 322 320 321 322 324 325 325 325 325 325 325 325 324 324 325 324 323 322 321 320 320 320 320 320 320 318 315 314 312 311 311 311 311
334 333 333 332 330 328 325 323 321 320 319 319 319 319 320 320 317 312 309 309 309 309 310 311 311 312 314 314 314 314 314 315 316 316 317 317 317 315 313 312 312 313 312 309 309 313 320 323 325 327 327 326 325 323 320 322 324 325 325 325 325 325 325 325 326 326 326 327 326 324 323 322 321 321 322 322 321 320 318 316 314 311 310 310 310
334 333 333 331 329 326 323 321 319 319 319 318 318 318 319 318 315 312 310 309 309 309 309 310 310 311 313 314 314 314 314 314 314 315 315 316 317 317 316 314 313 314 314 312 309 310 317 323 326 328 329 328 327 326 323 322 323 324 325 325 325 325 325 326 327 327 327 327 327 325 323 324 323 322 323 322 322 321 320 318 316 313 311 310 309
333 334 333 331 328 324 321 320 319 318 318 318 317 317 318 316 315 312 311 309 309 309 309 310 310 311 312 313 314 314 314 313 313 313 314 315 316 317 318 317 315 315 315 315 312 309 312 320 326 329 330 329 329 328 327 326 325 325 325 325 326 326 325 326 328 328 327 327 327 326 324 324 324 323 323 323 322 321 321 320 318 315 312 310 310
334 334 333 331 327 323 321 319 318 318 317 317 317 317 316 315 314 313 312 311 310 310 310 310 310 310 311 312 313 314 314 314 314 313 312 313 315 316 317 318 318 317 317 317 316 313 310 314 322 329 330 330 330 330 330 329 328 327 326 326 327 326 326 327 328 329 329 327 327 327 325 324 324 324 323 323 323 322 322 321 320 316 313 311 311
334 334 333 331 327 323 321 319 317 317 316 316 316 315 314 313 313 313 313 312 311 311 311 311 311 311 311 312 314 316 319 320 321 319 316 314 313 315 315 315 316 317 318 318 318 317 314 311 315 325 330 330 330 330 330 330 329 327 327 328 328 328 328 329 329 330 330 329 327 327 327 325 324 324 323 323 323 323 323 322 321 318 315 313 311
335 335 333 331 328 324 321 318 317 316 315 314 314 314 313 313 313 314 314 314 315 315 315 315 313 313 313 315 319 323 326 328 329 327 325 323 322 322 321 320 319 317 317 317 319 319 318 315 312 316 325 330 330 330 331 330 330 328 329 331 331 330 330 330 330 330 330 330 329 328 328 326 325 325 324 323 323 323 323 323 322 321 319 316 315
335 335 334 333 329 324 321 318 317 316 315 315 315 315 315 316 317 319 320 321 321 322 322 320 319 320 320 323 328 329 331 332 333 332 331 332 332 332 331 330 329 326 321 318 319 320 320 319 317 313 317 326 329 330 330 330 329 329 330 332 332 331 330 331 331 331 330 330 330 329 329 327 325 325 324 323 323 323 323 323 322 322 321 318 318
335 336 336 333 329 323 320 318 318 319 319 320 320 322 323 324 325 325 326 328 329 329 329 328 328 329 328 330 331 332 332 333 333 333 333 333 333 333 333 333 333 333 330 323 319 320 322 321 320 318 316 319 326 330 330 330 330 330 331 332 332 332 331 331 331 331 330 330 330 329 330 329 327 325 325 324 324 323 323 322 322 322 322 322 321
336 337 336 332 326 322 321 320 323 325 326 325 326 328 329 330 329 329 330 332 334 334 334 334 333 333 333 333 332 332 333 333 334 334 334 333 332 331 332 333 334 334 334 330 323 319 321 322 322 320 318 319 325 329 330 331 332 332 332 332 332 332 331 331 332 331 330 330 330 330 330 330 329 327 326 325 324 324 324 323 323 324 324 325 323
338 337 335 332 327 325 326 326 328 330 331 330 330 331 331 331 332 332 333 334 335 336 335 335 334 334 334 334 333 333 333 333 334 334 334 332 330 329 331 332 333 333 334 334 331 325 320 320 323 323 321 321 325 327 329 329 330 332 333 333 333 333 332 332 332 332 330 330 330 330 331 331 330 328 327 326 325 325 325 324 324 325 325 324 324
340 338 337 336 330 329 333 333 332 333 333 334 333 333 333 334 335 335 335 336 336 336 335 335 334 334 334 333 333 332 332 332 332 332 332 331 330 329 330 331 333 334 334 333 333 332 326 320 320 323 324 322 323 324 325 324 326 331 334 334 334 333 332 332 332 332 330 330 330 331 331 331 331 329 328 327 326 326 326 325 325 325 325 324 324
341 340 339 338 335 333 336 336 334 334 335 335 335 335 335 336 336 335 336 336 335 335 335 335 335 334 333 333 333 332 332 332 331 331 330 330 330 329 329 331 332 333 334 332 332 334 333 328 321 321 323 324 324 323 324 323 324 330 334 334 334 333 333 332 332 332 331 330 330 331 331 331 331 329 328 328 328 328 326 325 324 325 325 323 323
342 341 340 340 339 337 338 337 335 335 335 336 336 336 336 336 336 336 335 335 335 335 335 335 334 333 333 333 333 332 331 331 331 330 330 330 330 330 330 331 332 332 333 332 333 333 333 333 329 323 321 321 323 324 325 325 325 328 332 334 333 333 333 332 332 331 331 330 331 331 331 331 331 330 328 328 329 328 327 325 324 324 324 322 320
342 341 341 341 341 339 339 338 336 336 336 336 336 337 337 336 336 335 335 335 334 334 333 333 333 333 333 332 331 331 331 331 331 330 330 330 330 330 331 331 331 331 332 332 332 333 333 334 334 330 325 322 322 324 325 325 325 326 328 330 331 332 333 333 333 332 331 330 331 331 331 331 331 330 329 328 329 329 328 326 325 324 322 320 315
341 341 341 341 341 340 339 339 338 337 336 336 337 337 337 336 336 335 335 334 333 333 333 333 332 332 332 331 331 331 331 331 331 331 331 330 331 330 330 330 331 330 331 331 331 332 333 333 334 334 332 329 328 327 324 323 322 323 325 326 326 328 330 332 333 332 331 330 330 331 331 331 331 330 329 329 329 328 328 326 325 324 322 319 312
341 340 341 341 340 340 339 339 338 338 337 337 337 337 337 336 335 335 334 333 333 333 333 333 332 332 332 331 331 331 331 332 332 332 332 332 332 332 332 331 331 331 331 331 331 331 332 332 333 333 333 333 332 331 330 327 325 323 323 323 327 329 329 331 332 332 331 330 330 330 331 331 331 330 329 329 329 329 329 327 326 325 323 318 311
341 341 340 340 340 340 339 338 338 338 338 337 337 337 337 335 334 333 333 333 333 333 332 332 332 332 332 332 332 332 333 333 333 333 333 333 333 332 332 331 331 331 331 331 331 331 331 332 332 332 333 333 333 332 333 332 330 328 324 322 326 329 329 329 330 331 331 330 330 330 330 331 331 330 328 329 330 329 329 328 327 326 323 317 311
341 341 340 339 339 339 338 338 337 337 337 337 337 337 336 334 333 333 333 333 333 332 332 332 332 333 333 334 334 334 334 334 334 334 333 332 332 331 330 330 330 330 330 330 331 331 331 331 331 331 331 332 332 332 332 332 332 331 329 326 327 328 328 329 329 329 330 330 330 330 330 330 331 330 329 329 329 330 329 329 328 326 324 317 310
339 340 339 339 338 338 338 337 336 337 337 337 336 336 335 334 333 333 333 333 333 333 334 334 334 334 335 335 335 335 334 334 333 333 333 332 331 331 330 329 329 328 328 328 329 330 331 332 331 331 330 331 331 332 332 332 332 332 332 331 331 331 330 330 329 329 330 331 330 330 330 330 330 330 330 329 329 330 330 329 328 327 324 317 310
338 338 338 338 337 337 337 336 336 336 336 335 336 335 334 333 333 333 333 333 334 334 335 335 334 335 335 335 335 334 333 333 333 332 332 332 331 332 331 331 330 329 328 328 328 329 330 331 332 331 331 331 331 331 331 331 332 331 331 331 331 332 331 331 330 330 330 331 330 330 330 330 330 331 330 330 329 330 330 330 328 327 325 317 311
338 337 337 337 336 336 336 335 335 335 335 335 335 334 334 334 333 333 334 335 335 335 335 335 334 334 333 333 333 333 333 332 332 332 332 332 332 333 332 331 330 330 330 329 328 329 330 331 331 332 331 331 331 331 331 331 331 331 331 331 332 332 331 331 331 330 331 331 331 330 330 330 331 331 331 330 330 330 330 330 329 328 326 318 311
338 337 336 336 336 336 335 335 335 335 335 335 334 335 334 334 335 335 335 335 336 336 335 334 333 333 333 333 333 332 333 333 333 333 333 332 332 332 332 331 330 330 329 329 329 329 330 331 331 331 331 331 330 330 330 331 331 331 331 331 331 332 332 331 331 331 330 331 331 331 331 331 331 331 331 331 330 330 330 330 329 329 327 320 313
337 336 336 336 335 336 335 335 335 335 335 335 334 335 335 335 336 335 335 335 335 335 334 334 333 333 333 333 333 333 333 333 333 333 333 332 332 332 331 331 330 330 330 329 329 329 330 330 331 331 331 331 331 331 331 331 331 331 331 331 331 331 331 331 331 331 330 330 331 331 331 331 331 331 331 331 330 330 330 330 330 329 328 323 315
335 335 335 335 336 337 336 335 335 334 334 334 335 334 334 334 335 335 334 333 333 333 333 333 334 334 334 333 333 334 333 333 333 333 333 332 331 331 331 330 330 330 329 328 328 328 328 329 330 330 331 331 331 331 331 331 330 330 331 331 331 331 331 331 331 330 330 330 330 331 331 331 330 331 331 331 330 330 331 330 330 329 328 325 318
335 334 334 334 335 335 336 335 334 334 334 334 335 335 334 334 335 334 333 333 333 332 332 332 332 332 332 332 332 332 333 333 333 333 332 332 331 330 330 330 330 330 330 328 327 327 326 326 328 329 330 330 330 331 331 331 330 330 331 331 331 331 330 331 331 330 330 330 330 330 330 330 331 331 331 331 331 331 330 330 330 329 328 327 321
337 337 336 336 336 335 336 336 335 335 334 335 335 334 334 333 333 332 332 332 332 332 331 330 330 330 330 331 330 330 331 332 333 332 331 331 331 330 329 329 329 329 330 329 328 327 326 326 327 329 329 329 330 330 330 330 330 330 330 331 331 330 330 330 331 331 330 330 330 330 330 330 330 331 331 331 331 331 331 330 330 330 328 328 324
338 338 337 336 336 335 336 335 335 335 334 334 334 333 333 332 331 331 331 331 331 331 331 330 330 330 330 329 329 329 330 331 331 330 329 329 329 329 328 328 328 328 330 330 329 328 326 326 327 328 328 329 329 329 329 330 330 330 330 330 330 330 330 330 330 330 330 330 330 330 329 329 330 330 331 331 331 330 331 330 330 330 329 328 327
336 336 336 335 335 334 334 333 333 334 333 333 333 333 332 332 331 331 330 330 331 330 330 330 330 330 329 329 329 328 329 330 330 328 326 326 327 327 327 327 327 327 328 330 330 328 327 326 327 327 328 328 328 328 329 330 330 330 330 329 329 329 330 330 330 330 330 330 330 330 330 329 329 330 330 330 330 330 330 331 330 330 329 329 328
334 334 335 334 333 333 332 332 332 333 333 332 332 331 331 330 330 330 329 329 329 329 329 329 330 330 329 329 328 328 327 328 327 325 324 324 326 327 327 327 327 327 328 329 329 329 328 327 327 326 326 326 326 327 328 329 329 330 330 329 329 329 329 329 329 329 329 329 330 330 330 330 330 329 329 329 330 330 330 330 330 330 330 329 329
334 333 333 333 332 332 332 332 332 332 332 331 331 330 329 329 329 328 328 328 329 329 329 329 329 328 328 327 325 324 324 323 323 323 323 325 326 326 326 326 327 327 328 328 329 329 329 328 327 327 326 325 326 326 327 327 328 329 329 329 329 329 330 330 330 330 330 330 330 330 330 330 330 330 329 329 329 329 329 330 330 330 330 329 329
Wind_Speed
30 28 26 24 22 19 17 16 15 16 16 16 15 13 12 11 11 11 11 11 11 13 14 15 15 16 16 17 16 16 16 15 14 14 15 15 16 16 16 15 15 15 14 13 13 14 14 14 15 15 15 15 14 14 13 13 13 13 12 11 11 11 11 11 11 10 10 9 8 6 5 5 5 4 3 1 4 7 8 9 9 10 12 12 12
32 29 27 24 22 20 18 17 16 16 16 16 15 14 12 11 11 11 12 11 12 13 14 15 15 16 16 16 15 15 14 14 14 15 16 16 17 16 16 15 15 14 13 13 13 13 14 14 14 14 14 14 14 13 13 12 12 12 11 11 11 10 10 9 9 8 8 7 7 6 3 3 5 5 3 5 6 8 9 9 8 9 11 11 11
33 30 27 24 22 20 18 17 16 16 16 16 15 14 13 12 11 12 12 12 12 13 14 15 15 15 15 14 13 13 13 14 15 16 16 17 17 16 15 14 14 14 13 13 13 13 13 13 13 14 14 13 13 12 12 11 11 12 11 11 11 10 10 9 8 6 5 5 5 4 1 3 5 6 7 7 8 9 10 9 7 8 11 11 10
32 30 27 25 23 20 19 17 16 16 16 15 15 14 13 12 12 12 12 12 12 13 14 14 15 14 14 13 12 12 13 15 15 16 16 16 16 15 15 14 13 13 12 12 12 12 12 11 11 12 13 12 11 11 10 10 11 11 10 10 10 10 10 9 8 6 4 3 3 2 1 3 6 8 9 9 9 10 9 8 8 10 12 11 10
31 29 27 25 23 21 19 17 16 16 15 15 14 14 13 12 12 12 13 12 13 13 14 14 14 13 12 12 12 13 15 15 15 16 16 16 15 15 14 13 12 12 12 12 12 11 10 10 10 10 10 10 9 9 9 9 9 9 8 8 9 8 9 10 9 9 7 5 4 4 4 5 7 9 10 11 12 11 10 9 10 11 12 11 10
30 28 26 25 23 21 19 17 16 15 15 14 14 14 13 12 12 12 12 13 13 14 14 14 14 13 12 12 13 14 15 15 15 15 15 15 14 14 14 13 12 11 11 11 10 10 9 9 8 8 8 8 8 9 9 8 8 7 7 8 8 7 8 10 10 12 13 10 9 8 8 9 10 11 11 12 12 12 12 11 11 12 12 11 10
28 28 26 24 23 21 19 17 16 15 14 14 14 14 13 12 11 12 12 13 13 14 14 14 13 12 12 13 13 14 15 14 14 14 13 13 12 12 12 11 11 10 10 9 8 7 7 7 6 6 7 9 9 9 9 8 7 7 8 8 8 8 9 10 11 14 14 13 11 10 11 11 11 12 13 13 12 12 13 13 13 13 12 12 11
27 27 26 25 23 22 19 17 16 14 14 13 13 13 13 12 11 11 11 12 13 14 14 14 13 13 13 13 13 14 14 13 13 12 12 11 10 10 9 9 9 8 8 7 6 5 5 5 5 6 9 11 10 8 7 6 6 8 9 10 9 9 10 11 12 13 13 12 11 11 11 11 12 14 14 14 13 13 14 14 14 13 13 13 12
27 26 26 24 23 22 19 17 15 14 13 13 13 13 13 12 12 11 10 11 13 13 14 14 13 13 13 13 13 13 13 13 12 11 10 10 9 8 8 7 7 7 7 7 7 6 4 5 7 8 11 12 10 8 7 7 9 10 11 11 11 11 12 13 13 13 12 12 11 10 10 11 15 15 14 14 14 15 15 15 14 14 13 13 13
27 26 26 24 23 22 20 17 15 14 13 12 12 12 13 12 12 11 10 11 12 12 13 13 13 13 13 13 13 13 12 12 11 10 9 9 8 8 8 7 7 7 8 8 7 7 5 6 9 10 12 12 9 8 9 11 12 12 12 12 13 13 14 15 14 13 12 12 11 10 11 14 16 15 13 14 15 15 15 15 15 14 14 14 13
26 26 25 24 23 22 20 18 16 14 13 12 12 12 12 12 12 11 11 11 11 11 12 13 13 14 14 13 12 12 11 11 10 9 8 8 8 9 9 9 9 8 8 7 7 7 7 8 11 12 13 12 9 9 11 12 12 12 12 13 15 16 16 16 15 13 12 11 11 10 12 16 16 14 12 12 13 13 14 15 15 14 14 14 14
26 25 24 24 23 22 20 18 17 15 14 13 12 12 12 12 12 11 10 10 10 11 11 12 13 13 13 12 11 11 10 9 9 8 7 7 8 9 10 10 9 8 8 7 7 7 9 10 13 14 13 10 9 10 12 12 12 12 13 15 16 18 18 16 14 13 12 12 11 11 13 15 15 13 12 11 11 12 14 14 14 14 14 14 14
25 25 25 24 23 22 20 19 17 15 14 12 12 12 12 12 12 11 10 9 9 10 11 12 12 12 12 12 11 10 9 8 8 7 7 7 9 10 10 10 9 8 8 7 7 7 10 12 15 15 12 10 9 10 12 13 12 12 14 15 17 18 18 17 15 14 14 13 12 12 13 14 13 12 12 11 11 12 13 13 14 14 14 14 15
24 25 25 23 23 21 20 19 17 15 14 12 12 12 12 12 12 11 10 9 9 9 10 11 11 11 11 11 11 10 9 7 7 7 7 7 8 10 10 10 9 8 8 8 7 8 11 13 15 14 11 9 8 10 11 12 13 13 14 15 16 17 18 17 16 15 15 13 11 12 13 13 12 12 11 10 10 10 11 12 12 13 14 13 13
23 24 24 23 23 21 19 18 16 15 14 14 13 13 13 12 12 11 10 10 9 9 9 10 11 10 10 10 10 10 8 7 6 7 7 7 8 9 9 9 8 8 8 8 7 9 11 14 13 12 11 8 7 8 10 11 12 13 13 14 15 16 17 17 16 16 16 14 11 12 13 13 12 11 10 8 8 9 9 9 10 11 11 11 11
23 23 24 23 22 21 20 18 16 15 15 15 15 15 14 13 12 12 11 10 10 9 9 10 10 9 9 9 10 9 7 6 6 7 7 7 8 8 9 8 8 8 7 7 8 9 12 13 13 11 9 7 6 7 8 10 11 11 12 13 14 14 15 16 16 16 15 14 12 13 14 13 12 10 8 7 7 6 7 7 8 8 9 9 9
23 23 23 22 22 21 20 19 18 17 17 16 16 16 14 13 12 12 11 10 10 10 9 9 8 7 7 8 8 8 6 5 4 5 6 7 7 8 9 8 7 7 7 7 8 10 12 12 12 11 8 6 6 6 7 8 9 10 11 11 12 13 14 15 15 15 15 14 13 14 13 13 12 10 9 9 8 6 5 5 5 6 7 7 7
23 22 22 21 21 20 20 20 19 18 17 17 16 16 15 14 12 12 11 11 11 10 9 8 7 5 5 7 7 7 6 4 3 3 5 6 6 7 7 8 7 7 7 7 8 10 12 11 11 10 8 6 4 5 6 6 7 8 9 10 11 12 12 13 14 14 14 14 13 12 11 12 11 10 10 10 10 9 6 4 3 4 5 5 5
22 21 20 20 20 19 19 19 18 18 17 17 16 16 15 14 12 11 11 11 11 10 9 8 7 6 5 6 6 6 5 4 4 3 4 5 6 6 7 7 7 7 7 7 9 11 12 11 10 10 9 7 5 4 5 5 6 7 8 8 9 10 11 12 12 12 13 14 13 11 10 10 9 9 9 10 10 10 8 6 4 2 2 3 3
21 21 20 19 19 18 18 17 17 17 16 16 16 16 15 14 11 11 11 11 11 10 9 7 7 7 6 6 6 6 5 5 4 4 4 4 5 6 6 6 6 7 7 8 10 13 13 12 11 11 10 9 6 4 3 4 4 5 6 7 7 8 8 10 10 11 13 14 14 13 10 9 9 8 9 9 9 9 8 7 6 3 1 1 1
21 21 20 18 18 16 16 16 17 16 16 16 15 15 13 13 12 11 12 11 11 10 9 8 7 7 7 6 6 6 5 6 5 5 5 4 4 5 6 6 6 6 6 8 11 14 15 14 13 12 11 10 9 6 4 3 3 4 4 4 5 6 6 7 9 10 11 13 14 14 12 10 9 9 9 9 9 9 8 8 7 4 2 1 0
23 21 19 18 16 15 15 15 16 15 16 15 14 14 13 13 12 12 11 11 11 10 10 8 7 7 7 6 6 6 5 5 5 5 5 5 5 5 5 5 5 5 6 7 10 14 16 16 15 14 13 12 11 8 6 4 2 2 2 2 3 4 5 6 8 9 10 12 13 14 13 11 9 9 10 9 9 8 8 9 8 5 3 1 1
24 21 19 18 16 15 15 14 15 15 14 14 14 13 12 11 11 10 10 11 11 10 10 8 7 6 6 6 6 6 5 5 5 5 5 5 5 5 5 5 5 5 5 5 8 12 17 18 17 16 15 13 12 10 8 6 3 1 0 1 2 3 4 5 7 8 9 11 13 14 14 12 10 9 9 9 9 8 8 9 8 6 3 1 1
24 21 19 18 16 15 14 14 14 13 13 13 13 12 10 10 9 9 9 10 10 9 9 7 6 5 5 6 6 5 4 4 4 4 5 5 5 4 4 5 5 5 4 5 6 9 14 18 19 17 16 15 13 11 9 7 5 3 2 2 3 2 3 4 6 8 9 10 12 13 14 13 11 10 9 9 8 9 8 8 8 6 4 2 0
24 21 19 18 16 15 14 14 13 12 12 11 11 10 10 9 9 9 8 8 8 8 7 6 5 4 4 5 5 5 4 3 2 2 3 3 4 4 4 4 5 6 5 5 5 7 10 15 19 19 18 16 14 12 10 8 7 5 4 4 4 3 3 3 5 7 8 10 11 13 14 14 12 11 9 8 8 8 8 8 7 6 5 3 1
24 21 19 17 15 15 13 13 12 11 10 9 8 8 9 8 8 8 8 8 7 6 5 5 4 3 4 4 4 4 4 3 2 1 1 1 2 3 3 4 5 6 7 7 6 6 8 11 16 20 20 18 16 14 12 10 9 8 7 5 5 5 4 3 5 7 8 9 10 12 14 14 13 11 10 8 8 8 8 7 7 6 5 4 3
23 20 18 16 15 14 13 12 10 10 8 8 8 8 8 8 8 8 7 7 6 5 4 4 3 3 3 3 2 2 2 2 1 1 1 0 1 2 3 4 5 6 7 8 8 8 8 9 12 16 20 20 18 16 14 12 11 9 9 7 6 6 5 4 5 7 7 8 10 12 14 14 13 12 11 9 9 8 8 7 7 7 6 5 4
21 19 18 16 15 13 12 11 10 9 8 8 8 8 9 9 8 7 7 6 5 4 4 4 3 2 2 2 2 3 3 4 4 3 3 3 3 3 4 4 5 6 7 9 10 10 9 10 10 13 18 21 20 17 15 14 12 11 11 10 9 8 7 6 6 7 7 8 9 11 13 14 13 12 11 10 8 8 7 7 7 7 7 5 3
18 17 16 15 15 13 12 11 10 9 8 8 8 8 8 8 8 7 7 6 4 3 2 2 2 2 2 2 3 4 5 6 7 6 6 5 5 6 6 6 6 6 7 9 11 12 12 11 11 11 14 19 20 17 16 14 13 13 13 13 12 11 9 8 7 7 7 7 9 10 12 13 13 12 10 9 8 7 7 7 7 7 6 4 3
17 16 15 15 15 13 12 11 10 9 7 7 7 7 7 8 8 7 6 4 3 1 1 2 2 2 3 3 4 5 6 7 8 8 7 7 8 8 8 7 7 6 7 8 10 12 13 13 13 13 13 16 19 19 16 15 15 15 14 14 14 13 12 10 9 8 8 8 8 9 11 12 13 12 10 9 9 7 6 6 6 5 4 3 3
16 16 16 15 14 13 12 10 10 9 8 7 7 7 7 7 6 6 5 3 1 1 1 2 3 4 5 5 6 7 8 8 9 9 9 9 9 10 9 8 8 8 8 9 9 10 13 15 15 15 15 16 20 21 19 17 17 17 17 16 16 16 15 13 12 11 9 8 8 9 10 12 13 13 11 10 8 7 7 6 4 3 3 4 4
15 16 16 15 14 13 11 10 10 9 8 8 7 7 6 6 4 3 3 2 2 2 3 3 4 5 6 6 7 7 8 9 10 10 10 10 11 11 10 9 8 8 9 10 11 11 12 14 16 18 18 18 20 22 23 21 20 20 20 19 18 17 16 15 15 14 11 10 10 10 10 11 12 13 11 10 8 7 6 5 4 3 4 4 5
14 15 16 15 14 13 11 10 10 9 8 7 7 6 5 4 3 2 2 2 3 4 4 5 5 6 6 6 7 7 7 8 8 9 10 11 11 11 10 10 9 9 10 12 12 12 12 14 16 19 20 20 21 23 25 25 23 22 23 23 20 19 17 17 17 16 13 12 12 11 10 10 11 13 12 10 9 7 6 5 4 4 4 4 5
13 14 15 14 13 13 11 10 10 9 7 7 6 5 4 4 3 3 3 4 5 5 5 6 6 6 6 6 6 6 6 6 6 7 8 9 9 10 10 10 10 10 11 13 13 13 14 15 16 18 21 21 22 23 25 25 25 24 24 25 23 21 20 18 17 17 16 14 13 13 11 10 10 11 11 11 10 8 6 5 5 5 5 5 5
11 13 14 13 13 12 12 11 10 9 8 7 6 5 4 4 3 4 4 4 5 5 5 6 6 6 5 5 5 5 6 6 6 7 7 8 9 10 10 10 10 11 12 13 14 14 15 16 17 19 21 21 22 24 25 26 25 24 24 25 25 24 22 21 18 17 17 17 15 15 14 11 9 9 10 11 11 10 7 6 6 7 7 6 6
11 12 13 13 12 12 11 11 10 10 9 7 6 5 5 5 5 4 4 4 4 4 5 5 5 5 5 5 6 6 7 7 8 8 9 9 10 10 10 10 11 11 12 13 14 15 16 17 17 18 20 21 22 24 25 26 27 25 25 25 26 25 24 23 21 18 18 18 18 17 17 14 11 9 10 11 11 11 8 7 7 8 8 7 7
11 11 12 11 11 11 11 11 11 10 9 8 6 6 5 6 5 4 3 3 3 4 5 6 6 5 5 6 6 7 8 9 10 10 10 10 11 11 10 10 12 13 13 14 15 16 17 18 18 19 20 20 21 23 24 26 26 26 25 26 25 25 24 24 22 20 19 20 21 20 20 18 14 12 11 10 11 11 10 8 8 9 8 7 7
11 10 11 11 11 11 11 11 11 10 8 8 8 7 6 6 4 3 3 3 3 5 5 6 6 6 6 7 7 8 9 9 10 10 10 10 11 11 11 11 12 13 14 15 15 16 17 19 19 19 20 21 21 22 22 24 25 25 26 27 26 25 23 23 23 22 21 22 23 22 22 20 16 14 12 10 11 12 11 10 9 9 9 8 7
13 12 11 12 12 12 12 12 12 11 9 9 9 8 7 5 4 3 3 3 4 5 5 5 6 6 7 7 7 7 8 8 9 9 10 10 10 11 11 12 13 14 14 15 15 16 16 18 19 19 21 22 22 21 21 22 22 23 24 25 25 26 25 24 24 23 22 23 23 22 23 21 18 16 13 11 11 12 13 12 10 10 9 8 7
14 13 12 13 13 13 13 13 13 12 10 9 9 8 6 5 4 4 4 5 5 5 4 5 5 6 6 6 5 6 6 7 8 9 9 10 10 11 11 12 13 14 15 16 16 16 16 17 18 19 20 22 22 22 22 22 21 22 22 20 21 24 25 25 25 24 22 22 22 21 23 21 19 18 15 12 12 13 14 13 12 11 10 9 7
15 14 14 13 13 13 14 13 13 11 9 8 7 5 5 5 5 5 5 5 5 4 4 5 6 6 6 6 6 6 6 7 8 9 9 10 10 11 13 13 14 15 16 17 17 17 17 16 17 18 19 20 22 22 22 22 22 22 21 20 20 21 24 25 25 25 23 22 21 20 21 22 21 19 16 14 13 14 15 15 13 12 11 10 9
15 14 14 13 12 12 13 12 10 8 6 6 5 5 5 5 5 5 5 5 6 5 6 7 7 7 7 7 7 7 7 7 8 9 10 11 11 13 14 15 16 17 17 17 17 17 16 16 16 18 18 18 20 20 20 21 22 22 21 20 20 21 22 24 25 25 23 22 22 21 22 22 22 20 18 16 15 15 15 16 14 13 12 11 11
16 15 14 13 11 10 10 9 7 6 5 5 5 4 5 4 4 5 5 5 6 7 7 8 7 6 6 7 7 7 7 8 10 11 11 12 13 14 15 16 16 17 18 18 17 16 16 16 16 17 18 19 19 19 19 21 21 21 20 20 20 20 20 23 24 24 23 23 24 24 24 23 23 22 21 19 17 16 16 17 16 15 14 12 12
15 15 13 12 11 10 8 7 6 6 5 4 4 4 4 4 4 5 6 7 7 7 7 7 6 5 6 7 8 8 8 10 11 12 13 14 15 16 16 17 17 17 17 17 17 17 17 16 15 16 18 19 20 20 20 21 22 20 18 18 19 17 17 20 23 22 22 24 26 27 27 26 25 24 24 22 20 18 17 18 17 16 15 14 14
14 13 12 11 11 9 7 6 5 5 5 5 4 4 4 4 6 7 8 8 7 7 7 6 7 8 8 8 9 9 9 10 11 13 15 16 17 17 18 18 18 18 18 17 17 17 17 17 16 16 17 18 19 21 21 22 23 21 20 19 17 14 14 18 20 19 19 21 23 26 27 27 26 26 26 24 22 20 19 19 19 18 17 16 15
14 12 12 10 9 8 7 6 5 4 4 3 3 4 4 5 7 8 8 7 7 8 9 9 10 10 10 10 11 11 10 10 12 14 16 18 18 18 18 18 18 18 18 17 17 16 17 17 17 16 16 17 17 19 20 21 22 22 23 23 20 18 19 20 19 18 18 18 20 22 25 26 26 27 27 26 24 23 21 20 20 19 19 18 17
16 15 13 11 10 8 6 5 4 3 3 3 3 5 6 7 8 9 8 7 7 9 10 11 11 11 11 12 13 13 13 13 14 16 18 19 19 18 18 18 17 17 17 17 16 16 15 15 15 15 15 15 15 17 19 19 20 21 22 23 23 22 24 25 25 21 19 19 19 19 21 23 26 28 28 27 26 25 24 22 21 21 20 20 19
18 16 14 11 9 8 6 4 3 3 4 4 5 6 8 9 9 8 7 7 8 9 10 11 11 12 13 14 15 16 15 15 16 18 19 20 19 19 18 18 18 17 17 16 16 15 14 14 14 14 14 14 13 14 17 18 20 21 22 23 23 23 23 24 26 25 22 21 21 20 20 22 25 28 28 29 28 27 26 25 23 23 23 21 21
16 13 11 10 7 6 5 4 3 4 5 6 8 8 8 8 8 9 8 8 9 10 11 12 13 15 17 19 20 19 17 16 17 18 19 19 18 18 18 18 18 17 17 16 15 14 14 14 14 14 14 13 13 14 16 19 20 20 20 20 20 21 21 23 26 27 25 24 24 24 24 23 24 26 28 29 29 29 29 27 25 24 25 23 22
15 12 9 8 7 6 6 6 6 6 6 8 9 9 9 8 9 10 10 11 12 13 14 15 17 19 20 21 20 18 17 16 16 17 17 17 16 16 16 16 17 17 17 17 16 15 14 14 14 14 14 14 14 15 16 16 17 18 17 17 17 17 19 21 24 25 25 25 25 27 27 26 26 27 27 28 29 31 31 30 29 27 27 26 24
14 13 11 9 8 7 6 7 7 7 7 7 8 8 9 10 10 11 12 12 13 14 16 17 19 20 20 19 18 16 15 15 15 15 15 16 15 15 14 15 15 15 16 17 17 17 16 16 15 15 15 15 15 16 16 16 16 18 17 16 17 17 18 20 21 21 23 23 25 28 28 28 29 29 28 27 28 30 32 32 32 30 29 28 27
Wind_Direction
170 169 165 162 162 162 159 150 143 140 133 130 126 123 120 114 112 107 107 107 110 115 119 120 121 122 121 122 120 119 118 117 116 115 115 115 114 111 110 109 109 107 107 109 107 104 104 104 104 106 104 101 99 99 98 97 100 100 102 101 97 92 89 88 85 83 81 78 76 68 63 60 33 4 345 102 136 136 132 132 128 125 120 109 103
165 166 164 163 162 162 158 150 145 140 134 132 130 128 124 119 117 112 113 113 117 122 125 126 126 126 125 124 123 122 121 121 120 119 118 118 116 113 112 112 112 110 110 111 112 110 109 109 108 108 105 103 103 102 103 105 105 103 103 101 97 92 88 88 89 90 91 88 82 70 53 43 25 24 67 109 132 142 138 134 132 140 136 121 112
162 162 163 162 162 162 158 150 147 141 136 135 133 131 127 124 122 118 118 119 124 129 131 132 131 130 129 127 126 126 126 126 125 123 120 118 116 114 114 113 114 113 112 114 115 115 114 115 115 111 107 105 104 105 107 107 105 100 97 94 92 90 87 80 81 88 100 109 107 99 50 37 41 59 91 103 120 140 143 136 131 141 140 132 126
162 160 162 161 161 162 158 152 149 143 138 138 135 132 129 128 126 123 122 125 130 135 137 136 135 133 132 132 132 132 131 131 129 126 122 119 117 115 114 113 114 114 113 115 116 115 116 118 119 116 112 109 106 106 107 109 108 102 94 91 91 89 80 66 64 67 81 101 112 123 77 63 66 77 91 95 105 125 134 133 131 138 138 139 140
163 161 162 160 162 163 159 154 151 146 141 139 137 133 131 130 128 126 125 130 135 140 143 140 139 136 137 137 137 137 135 134 132 128 124 121 120 117 115 114 114 116 115 116 117 116 118 122 122 123 119 115 114 113 113 117 114 104 91 87 91 86 67 55 55 57 63 73 88 93 85 93 92 90 94 94 97 108 118 123 125 130 133 139 144
164 163 163 161 162 164 161 157 154 150 144 140 137 135 133 132 130 128 129 133 138 143 146 144 141 140 140 140 139 139 138 136 132 129 126 125 123 120 120 122 122 122 123 123 124 126 130 132 131 129 123 121 124 124 123 122 116 105 88 81 83 74 61 56 53 53 55 63 81 86 83 91 93 93 96 95 97 104 111 115 116 118 123 132 137
167 165 164 163 163 164 163 160 158 153 146 142 139 137 134 135 132 129 131 135 141 146 148 147 144 144 143 141 141 140 137 134 129 128 127 127 128 127 128 132 132 131 132 132 134 142 150 151 148 141 128 126 127 127 127 126 117 100 83 80 79 66 59 55 51 51 52 60 74 80 81 83 84 90 95 95 97 99 102 104 106 110 115 119 120
170 168 166 166 165 164 166 164 160 156 149 145 142 139 137 136 134 132 133 138 144 148 149 149 148 147 145 144 143 140 137 134 131 130 129 129 129 132 136 141 142 141 141 141 145 156 167 160 149 142 134 131 128 127 129 125 111 93 87 85 77 64 57 53 52 50 52 62 72 79 80 82 86 90 92 92 92 95 97 99 101 103 105 105 105
172 169 167 167 167 166 167 166 163 159 154 149 145 142 141 139 136 137 138 143 148 149 150 151 152 150 148 147 144 140 138 135 133 135 133 129 129 132 137 144 146 148 150 148 149 157 162 140 129 135 136 133 129 127 119 106 97 92 90 86 76 65 58 55 54 52 55 67 75 77 78 86 90 88 87 90 91 95 98 99 100 100 100 99 100
173 170 168 168 169 168 166 167 166 164 160 154 150 145 144 142 140 141 146 153 152 150 152 153 154 152 150 148 144 140 139 137 134 135 133 128 126 126 129 134 136 140 143 143 142 144 141 125 126 134 136 134 132 123 105 97 94 93 89 82 75 66 60 56 54 54 60 72 79 77 80 86 85 82 83 86 90 95 101 102 101 100 102 102 102
173 170 169 170 170 169 167 169 170 169 165 159 154 150 147 146 146 147 153 159 156 153 154 156 155 154 153 148 144 143 141 142 138 136 134 127 122 120 121 123 125 131 132 132 131 129 129 128 132 136 136 135 134 120 105 100 94 89 83 75 68 63 58 54 52 54 61 70 75 80 86 86 84 83 85 87 87 91 97 100 101 100 100 100 101
173 170 170 171 171 170 169 171 173 172 169 164 159 155 152 152 154 156 156 156 159 161 159 159 157 156 156 148 144 145 145 145 143 141 135 126 121 119 120 122 125 127 126 127 125 123 127 133 138 138 138 137 131 118 108 101 92 82 76 69 63 61 57 53 52 53 56 62 70 82 87 86 89 92 94 95 90 87 90 92 96 95 92 90 92
172 171 172 172 172 170 171 172 174 174 171 167 163 161 160 161 164 163 157 153 158 168 168 163 159 157 154 150 148 146 148 151 150 144 133 125 123 122 123 125 126 126 125 126 122 122 129 135 139 140 141 141 129 113 104 97 88 79 72 68 64 62 58 55 54 53 52 56 65 76 77 80 88 92 95 95 90 88 87 86 86 88 87 86 85
174 173 172 172 171 170 171 173 174 173 172 171 170 168 169 172 172 167 160 155 156 169 177 170 164 159 151 150 152 150 150 154 154 144 133 127 125 125 124 126 126 126 126 126 121 122 132 138 140 141 145 148 129 108 99 91 85 78 72 69 66 63 60 56 54 53 52 53 57 61 62 66 73 78 84 87 88 88 86 86 84 84 86 86 85
178 175 171 171 170 169 170 172 173 172 174 176 178 177 178 180 177 171 165 160 159 166 177 176 170 165 159 155 153 151 151 156 154 144 134 131 129 128 126 125 126 126 127 127 125 127 136 141 142 145 149 154 137 110 97 89 83 78 74 70 66 64 61 57 53 52 52 52 50 48 50 52 56 65 72 72 77 83 84 86 86 87 88 88 88
177 176 171 171 170 169 169 170 172 174 179 182 185 184 183 184 181 177 170 166 166 168 174 179 175 168 169 167 159 153 155 158 149 141 137 136 135 133 129 127 129 128 129 130 131 137 144 147 148 150 154 159 146 118 99 89 83 79 78 71 66 63 61 58 53 51 49 48 45 41 41 41 42 48 53 51 55 73 82 88 90 91 90 89 89
172 173 172 172 172 170 170 170 173 178 184 187 189 189 188 188 184 181 175 173 174 174 174 179 181 172 170 171 168 166 169 167 149 140 139 142 142 139 134 130 133 132 132 133 138 146 151 154 154 159 166 170 157 129 105 92 87 83 78 72 66 61 59 58 53 49 45 41 38 36 35 33 30 27 24 23 26 41 61 85 97 97 94 91 89
168 172 173 174 174 173 173 174 178 183 189 191 192 192 192 191 187 184 180 180 180 180 181 177 177 175 171 173 177 180 185 182 170 151 141 148 152 146 140 135 137 137 136 137 146 155 159 163 163 169 180 190 180 142 119 100 93 84 76 73 67 59 57 57 52 48 44 37 32 30 28 26 23 19 13 9 9 13 23 43 73 97 99 95 94
167 171 173 176 177 177 178 179 183 186 192 195 196 195 194 193 189 187 184 185 185 187 188 179 172 173 179 186 191 192 198 197 189 180 160 159 163 159 150 143 142 140 141 144 153 164 167 171 174 180 191 203 206 170 137 115 99 85 77 75 65 56 54 54 52 49 42 36 32 26 22 19 16 13 8 3 1 1 4 9 19 48 85 98 98
167 171 174 178 178 180 180 181 185 188 193 196 200 198 195 193 188 188 187 186 188 191 194 187 177 176 183 191 200 201 206 210 208 211 199 183 176 173 166 156 153 148 147 151 162 171 174 179 184 190 201 211 217 209 169 135 112 90 78 74 62 52 51 50 49 49 43 35 31 27 20 15 10 6 2 357 353 353 352 352 357 358 9 113 93
168 173 175 178 178 180 181 182 186 189 193 196 199 199 196 194 190 189 187 185 188 192 197 196 187 185 191 194 201 206 210 214 216 220 219 212 197 190 186 173 166 161 156 157 169 178 181 185 189 194 207 218 224 226 212 179 135 99 77 69 56 47 48 44 43 46 42 34 30 27 20 15 8 1 358 354 349 345 343 341 341 341 333 282 280
170 173 174 176 176 178 180 184 188 190 193 194 197 199 197 195 193 191 186 184 187 193 199 200 195 192 196 200 206 213 220 225 228 229 226 222 214 207 205 196 187 180 172 166 173 183 188 191 193 197 208 221 230 234 225 214 184 113 72 51 35 34 39 34 34 38 36 28 24 22 17 13 7 1 356 352 347 340 337 335 333 330 323 288 249
170 171 171 174 174 176 181 184 189 192 193 193 196 198 197 195 194 191 187 188 190 195 200 200 199 197 200 206 211 215 227 240 250 255 252 245 232 222 222 219 210 204 194 182 179 187 192 195 197 199 206 218 230 239 234 225 217 183 216 341 353 8 25 25 25 25 25 19 16 15 13 8 2 359 355 351 347 339 335 331 326 325 323 302 236
169 169 170 171 173 175 180 185 191 194 193 193 196 195 194 194 192 188 187 191 194 197 200 203 203 204 203 204 206 207 217 235 253 266 274 277 270 249 240 246 241 235 224 210 198 195 197 200 202 201 205 215 226 239 241 237 238 235 250 286 307 323 1 17 22 18 13 10 8 9 8 4 358 352 350 350 346 340 337 331 325 324 325 323 280
168 169 171 170 171 174 178 184 190 193 194 194 192 191 190 190 188 184 183 185 192 196 198 203 210 214 207 198 195 190 191 204 227 246 267 284 294 287 263 258 257 255 251 241 224 211 207 205 206 205 206 214 222 233 242 243 250 261 266 270 278 289 328 360 11 8 4 2 0 2 1 359 356 347 346 349 344 338 335 329 324 319 315 310 264
169 171 172 171 171 173 177 183 188 191 193 190 184 184 183 181 180 175 171 172 179 183 185 194 204 212 208 199 189 180 176 182 189 199 231 272 310 316 306 285 270 263 259 256 246 231 222 214 212 210 208 213 219 226 236 242 250 264 270 266 271 281 305 335 351 353 352 352 352 354 354 354 351 344 343 348 344 339 333 326 319 309 296 290 269
171 172 172 172 173 173 175 180 186 188 185 177 167 165 166 160 159 155 152 154 156 158 159 167 179 190 199 203 202 211 217 211 221 222 244 271 308 313 318 313 300 284 270 261 254 243 235 227 221 217 213 214 219 224 229 239 247 256 262 261 266 271 282 301 326 339 339 340 343 347 348 348 346 344 342 343 341 336 331 325 316 307 294 285 276
171 173 174 176 175 172 173 178 181 179 172 162 150 146 146 139 139 136 136 139 138 144 143 149 162 176 204 237 270 280 284 290 292 285 282 283 296 296 295 301 303 302 290 275 262 251 243 235 230 226 218 215 219 223 226 234 239 243 250 255 261 264 270 282 302 321 327 328 332 337 343 345 344 341 337 335 338 332 326 321 315 308 297 284 270
174 175 177 177 176 173 172 174 172 169 164 153 142 139 136 128 129 131 134 132 126 134 137 147 163 193 236 258 274 280 282 289 294 293 291 289 292 294 296 292 290 298 300 292 277 262 252 242 236 232 224 218 216 218 222 227 231 234 242 252 262 267 269 275 289 302 310 315 321 328 336 342 342 337 328 326 332 328 322 319 315 312 305 288 266
178 177 176 176 175 171 169 171 168 165 159 152 148 145 139 132 132 137 141 133 122 127 154 183 202 222 248 257 259 269 274 281 289 290 290 290 291 293 296 293 288 291 294 293 284 271 260 250 242 235 228 219 212 211 217 224 233 238 241 248 258 267 268 269 277 280 288 299 308 318 327 335 337 331 321 319 325 326 326 323 317 314 308 290 275
177 176 173 174 173 167 167 171 168 162 155 153 156 156 149 143 142 148 154 153 168 285 275 249 254 249 254 256 255 261 269 278 284 288 287 285 289 292 293 292 289 289 289 285 279 274 266 257 249 241 234 225 216 215 222 231 243 248 246 247 254 263 266 262 264 266 270 279 290 304 314 325 330 326 316 311 317 324 328 325 313 292 271 266 264
174 175 173 173 172 166 167 173 169 161 155 151 154 158 154 151 147 151 166 200 244 277 279 269 266 263 262 257 260 263 267 276 279 282 282 281 286 290 293 291 289 289 288 281 275 273 268 262 256 249 243 236 229 227 230 238 248 251 250 251 253 258 263 260 258 258 260 264 272 287 301 312 321 322 312 303 304 312 321 320 303 280 268 263 256
171 173 175 175 173 171 170 173 169 162 156 155 155 155 153 154 154 165 200 243 261 272 270 270 264 263 266 263 266 269 269 273 275 279 279 282 286 290 295 294 293 292 286 280 277 276 268 263 258 253 249 244 241 239 238 242 249 252 251 253 255 257 261 262 260 255 254 257 261 272 284 297 309 315 309 297 292 299 310 308 296 279 272 273 265
168 169 174 175 176 178 174 171 170 166 165 167 163 158 161 166 176 200 230 245 256 268 269 271 272 273 276 274 274 272 272 275 278 282 282 285 288 292 298 298 296 292 287 282 279 278 272 266 261 256 253 250 248 249 249 250 252 253 252 255 258 259 261 266 267 258 254 255 258 264 271 279 292 303 303 293 287 290 295 293 291 281 276 285 281
170 169 170 173 178 180 177 172 171 173 179 180 175 177 182 189 205 218 232 247 259 269 271 274 280 285 285 283 281 276 278 284 288 292 291 292 294 297 300 299 296 290 287 285 283 282 279 275 269 262 258 255 253 254 256 256 256 256 256 258 261 263 263 267 273 268 260 256 256 260 264 267 272 283 290 288 285 285 287 284 285 285 285 292 296
174 171 168 172 177 177 177 174 176 182 186 187 186 194 201 207 219 230 240 253 264 269 272 276 281 285 287 288 290 291 292 297 302 306 307 307 306 307 307 304 300 296 292 290 289 287 285 282 277 272 265 260 258 258 258 257 258 259 259 262 263 265 266 266 272 275 266 257 256 257 258 259 259 265 273 278 281 280 280 276 275 282 285 290 300
175 174 170 173 179 178 177 177 183 189 187 192 197 203 213 217 221 226 235 246 258 268 272 279 287 291 296 296 294 298 300 305 309 311 315 315 314 312 311 310 305 303 301 297 296 293 290 287 283 281 276 268 264 265 265 261 259 260 261 263 264 265 266 266 269 273 267 259 256 255 255 255 255 259 261 265 273 275 273 270 267 276 282 283 294
172 173 171 175 179 177 179 179 184 190 188 196 204 211 218 219 219 218 231 251 257 265 270 275 287 294 298 297 294 300 302 306 309 310 314 313 314 316 315 315 311 306 302 298 296 292 291 291 289 286 283 279 275 274 274 269 264 261 258 258 262 265 267 268 267 267 265 260 259 258 255 252 251 253 254 255 262 268 269 266 263 270 276 277 283
166 166 168 173 175 175 180 183 183 185 187 196 204 212 216 213 220 230 242 256 256 262 267 267 277 286 291 292 293 300 302 304 306 306 310 313 317 320 321 322 317 310 304 297 294 291 288 288 289 289 286 286 284 280 279 277 274 269 260 256 260 265 267 268 266 265 265 262 262 258 251 247 245 246 248 250 254 261 266 263 261 264 269 270 269
159 162 168 170 172 176 181 184 183 182 187 198 203 205 209 211 223 239 247 252 256 259 263 262 267 276 280 282 283 287 292 296 298 300 307 315 320 322 322 320 315 310 306 301 296 292 289 286 287 289 289 289 288 285 283 285 286 283 277 269 265 266 267 268 267 265 264 261 258 251 246 245 243 243 244 245 248 255 260 259 258 259 261 262 257
157 161 167 167 171 179 184 185 183 182 187 194 198 198 204 218 230 245 251 254 258 256 263 268 268 272 272 273 277 280 286 290 292 298 306 313 317 317 315 314 312 310 310 309 304 298 294 291 289 288 288 288 287 285 285 288 289 287 286 283 278 272 268 268 267 266 262 255 251 244 243 245 242 243 244 242 244 250 255 257 256 255 256 255 249
156 161 165 166 171 178 182 183 177 175 182 187 192 196 206 223 239 248 248 251 262 268 278 285 284 284 282 283 289 292 296 298 299 305 309 310 310 309 309 313 315 313 312 313 312 308 302 297 294 292 290 288 285 284 283 284 286 288 290 285 280 276 270 267 264 264 259 249 245 243 243 245 243 243 243 239 241 245 250 254 254 252 251 249 244
155 159 163 164 165 167 171 173 169 167 178 193 198 208 224 232 241 249 254 264 278 286 288 292 294 291 294 299 301 301 304 309 312 314 314 310 308 307 309 313 316 315 313 313 312 313 310 305 300 297 296 293 289 286 284 284 285 287 286 278 274 273 270 269 265 261 259 252 246 244 246 249 246 241 239 238 238 241 245 251 253 250 247 243 239
154 154 158 159 156 160 162 161 170 174 181 201 209 228 246 253 267 274 278 279 283 292 290 292 296 296 300 304 305 307 310 312 314 314 313 311 310 309 309 311 314 315 315 313 312 313 312 309 305 301 299 297 295 292 287 285 284 282 277 272 270 267 264 268 269 265 261 256 251 248 248 251 247 238 237 239 238 238 241 247 250 248 245 240 235
153 149 152 155 152 159 164 162 179 189 191 206 219 240 259 273 287 290 292 292 289 290 287 285 287 285 287 291 295 300 304 309 310 310 311 311 310 309 309 312 314 315 316 316 314 313 312 312 311 307 303 300 299 297 291 285 283 278 270 266 262 257 259 268 272 271 265 259 256 252 249 248 244 238 239 240 238 237 239 243 246 245 243 238 232
151 149 153 158 158 161 160 167 190 202 206 226 247 266 281 286 286 284 286 290 287 287 289 292 293 295 300 305 304 301 303 308 310 310 310 309 309 310 312 315 315 314 314 314 314 314 314 314 313 311 309 306 302 300 297 293 290 282 272 268 262 259 265 268 267 270 270 266 261 255 250 246 242 240 241 241 239 237 236 239 243 243 242 237 231
148 150 154 156 159 161 159 170 191 217 241 258 276 279 281 284 285 286 288 288 290 297 305 309 311 314 317 316 312 309 310 313 313 312 311 310 310 311 313 313 313 312 309 309 312 313 313 314 312 310 309 308 304 299 299 301 296 288 280 276 272 269 268 263 258 261 267 269 264 257 252 248 245 244 243 241 241 238 234 236 241 242 240 237 231
147 152 157 159 166 172 180 192 206 251 276 276 285 288 289 293 293 298 310 313 310 312 314 314 313 311 306 302 301 304 309 314 315 314 312 311 310 310 311 311 310 308 304 303 307 309 310 310 308 306 306 307 303 299 303 305 298 291 288 284 279 273 266 259 255 255 257 261 262 259 256 253 250 249 247 244 243 240 235 235 239 240 239 237 232
153 161 159 165 182 188 204 233 249 264 275 275 279 284 288 295 296 297 299 299 299 299 301 303 301 298 296 296 299 303 307 309 311 311 311 310 309 310 312 311 308 305 301 298 300 303 306 307 305 304 306 306 303 302 306 307 303 298 293 288 282 274 264 258 254 251 252 255 261 263 262 257 252 251 249 247 244 240 237 237 237 238 238 237 233
162 175 176 184 204 217 237 251 252 255 265 274 278 281 283 281 282 286 287 287 288 290 292 293 292 291 293 297 302 305 306 305 307 309 310 310 311 313 314 312 309 304 301 298 296 297 298 301 303 303 304 303 302 301 302 303 305 303 294 283 277 272 267 263 257 254 254 256 262 266 265 258 255 255 253 250 246 241 239 239 236 234 234 235 233
167 180 188 196 203 213 227 233 238 247 259 274 282 288 293 291 286 286 286 288 290 289 291 292 293 296 301 308 312 313 313 312 311 311 310 310 312 313 313 312 310 306 303 301 297 294 292 294 298 299 300 299 298 298 297 297 299 300 295 285 277 275 275 273 270 266 261 260 264 266 266 262 259 259 257 254 250 246 244 242 237 233 231 233 232